Location: Solon
(41.3849°N, 81.4081°W)
Time: 02:17:17
(UTC-04:00)

CZ-2C R/B - Visible Passes

Search period start: 25 July 2016 00:00
Search period end: 04 August 2016 00:00
Orbit: 703 x 909 km, 98.2° (Epoch: 23 July)

Date Brightness Start Highest point End Pass type
(mag) Time Alt. Az. Time Alt. Az. Time Alt. Az.
25 Jul 5.4 00:14:07 10° ENE 00:15:03 10° ENE 00:16:00 10° NE visible
25 Jul 3.2 01:54:50 69° N 01:54:50 69° N 01:59:11 10° NNW visible
26 Jul 3.6 01:29:52 48° ENE 01:29:52 48° ENE 01:34:15 10° N visible
26 Jul 4.9 03:10:56 17° WNW 03:10:56 17° WNW 03:13:05 10° NW visible
27 Jul 4.3 01:04:53 29° ENE 01:04:53 29° ENE 01:09:05 10° N visible
27 Jul 4.3 02:45:58 28° WNW 02:45:58 28° WNW 02:49:04 10° NNW visible
28 Jul 4.9 00:39:55 18° ENE 00:40:19 18° ENE 00:43:33 10° NNE visible
28 Jul 3.7 02:20:59 44° NW 02:20:59 44° NW 02:24:37 10° NNW visible
29 Jul 5.4 00:14:57 10° ENE 00:15:51 11° ENE 00:16:48 10° NE visible
29 Jul 3.4 01:56:01 58° N 01:56:01 58° N 01:59:55 10° NNW visible
30 Jul 3.7 01:31:03 46° NE 01:31:03 46° NE 01:35:00 10° N visible
30 Jul 5.0 03:12:07 15° WNW 03:12:07 15° WNW 03:13:43 10° NW visible
31 Jul 4.3 01:06:04 29° ENE 01:06:04 29° ENE 01:09:50 10° N visible
31 Jul 4.5 02:47:09 24° WNW 02:47:09 24° WNW 02:49:45 10° NW visible
01 Aug 4.9 00:41:06 18° ENE 00:41:06 18° ENE 00:44:20 10° NNE visible
01 Aug 4.0 02:22:10 37° NW 02:22:10 37° NW 02:25:20 10° NNW visible
02 Aug 5.4 00:16:08 10° ENE 00:16:38 11° ENE 00:17:39 10° NE visible
02 Aug 3.7 01:57:12 48° NNW 01:57:12 48° NNW 02:00:39 10° NNW visible
03 Aug 3.9 01:32:13 42° NNE 01:32:13 42° NNE 01:35:45 10° N visible
03 Aug 5.1 03:13:18 13° WNW 03:13:18 13° WNW 03:14:19 10° NW visible
